Providence, RI

10:32 PM EDT on April 25, 2017 (GMT -0400)
Green State

Weather History for KPVD - July, 2014

Change the Weather History Date:

Sunday, July 20, 2014

  Actual Average Record
Temperature  
Mean Temperature 70 °F 74 °F  
Max Temperature 77 °F 83 °F 101 °F (1991)
Min Temperature 62 °F 65 °F 54 °F (1939)
Degree Days  
Heating Degree Days 0 0  
Month to date heating degree days 0 0  
Since 1 June heating degree days 13 43  
Since 1 July heating degree days 0 0  
Cooling Degree Days 5 9  
Month to date cooling degree days 199 168  
Year to date cooling degree days 313 326  
Since 1 June cooling degree days 302 300  
Growing Degree Days 20 (Base 50)    
Moisture  
Dew Point 58 °F    
Average Humidity 62    
Maximum Humidity 73    
Minimum Humidity 50    
Precipitation  
Precipitation 0.06 in 0.10 in 1.51 in (1982)
Month to date precipitation 3.38 2.00  
Year to date precipitation 28.54 25.71  
Snow  
Snow 0.00 in 0.00 in 0.00 in (2002)
Month to date snowfall 0.0 0.0  
Since 1 June snowfall 0.0 0.0  
Since 1 July snowfall 0.0 0.0  
Snow Depth 0.00 in    
Sea Level Pressure  
Sea Level Pressure 30.17 in    
Wind  
Wind Speed 7 mph (NE)    
Max Wind Speed 14 mph    
Max Gust Speed 17 mph    
Visibility 10 miles    
Events Rain    
T = Trace of Precipitation, MM = Missing Value Source: NWS Daily Summary

Daily Weather History Graph

Daily Weather History Graph

Search for Another Location

Airport or City:

Trip Planner

Search our weather history database for the weather conditions in past years. The results will help you decide how hot, cold, wet, or windy it might be!

Date:

Astronomy

Jul. 20, 2014 Rise Set
Actual Time 5:28 AM EDT 8:15 PM EDT
Civil Twilight 4:55 AM EDT 8:47 PM EDT
Nautical Twilight 4:14 AM EDT 9:28 PM EDT
Astronomical Twilight 3:27 AM EDT 10:15 PM EDT
Moon 12:40 AM EDT (7/20) 2:54 PM EDT (7/20)
Length of Visible Light 15h 51m
Length of Day
14h 46m
Waning Crescent, 34% of the Moon is Illuminated
Jul 20
Waning Crescent
Jul 26
New
Aug 3
First Quarter
Aug 10
Full
Aug 17
Last Quarter

Hourly Weather History & Observations

Time (EDT) Temp. Dew Point Humidity Pressure Visibility Wind Dir Wind Speed Gust Speed Precip Events Conditions
12:51 AM 66.9 °F 57.9 °F 73% 30.22 in 10.0 mi Calm Calm - N/A   Mostly Cloudy
1:51 AM 66.2 °F 57.2 °F 73% 30.20 in 10.0 mi NNE 4.6 mph - N/A   Mostly Cloudy
2:51 AM 66.0 °F 57.9 °F 75% 30.18 in 10.0 mi NNE 5.8 mph - N/A   Overcast
3:51 AM 66.0 °F 55.9 °F 70% 30.17 in 10.0 mi North 5.8 mph - N/A   Overcast
4:51 AM 64.0 °F 55.0 °F 73% 30.17 in 10.0 mi NNE 5.8 mph - N/A   Overcast
5:51 AM 64.9 °F 55.0 °F 70% 30.17 in 10.0 mi NNE 6.9 mph - N/A   Mostly Cloudy
6:51 AM 66.0 °F 55.9 °F 70% 30.19 in 10.0 mi North 6.9 mph - N/A   Clear
7:51 AM 66.0 °F 57.0 °F 73% 30.19 in 10.0 mi NNE 6.9 mph - N/A   Mostly Cloudy
8:51 AM 66.9 °F 57.9 °F 73% 30.20 in 10.0 mi NE 8.1 mph - N/A   Mostly Cloudy
9:51 AM 68.0 °F 59.0 °F 73% 30.21 in 10.0 mi NE 6.9 mph - 0.00 in Rain Light Rain
10:51 AM 71.1 °F 60.1 °F 68% 30.20 in 10.0 mi East 5.8 mph - 0.00 in   Overcast
11:51 AM 72.0 °F 57.9 °F 61% 30.19 in 10.0 mi NE 5.8 mph - N/A   Overcast
12:51 PM 73.9 °F 55.9 °F 53% 30.18 in 10.0 mi East 6.9 mph - N/A   Mostly Cloudy
1:51 PM 75.0 °F 55.0 °F 50% 30.16 in 10.0 mi NE 4.6 mph - N/A   Mostly Cloudy
2:51 PM 73.9 °F 57.0 °F 55% 30.15 in 10.0 mi NNE 8.1 mph - N/A   Overcast
3:51 PM 75.0 °F 57.9 °F 55% 30.14 in 10.0 mi East 8.1 mph - N/A   Mostly Cloudy
4:51 PM 75.0 °F 57.9 °F 55% 30.13 in 10.0 mi ENE 9.2 mph - N/A   Mostly Cloudy
5:51 PM 75.0 °F 57.0 °F 53% 30.13 in 10.0 mi ENE 10.4 mph - N/A   Mostly Cloudy
6:51 PM 73.0 °F 61.0 °F 66% 30.14 in 10.0 mi ENE 10.4 mph - N/A   Mostly Cloudy
7:51 PM 71.1 °F 62.1 °F 73% 30.14 in 10.0 mi ENE 9.2 mph - N/A   Mostly Cloudy
8:51 PM 69.1 °F 60.1 °F 73% 30.15 in 10.0 mi East 11.5 mph - 0.00 in   Mostly Cloudy
9:39 PM 64.4 °F 60.8 °F 88% 30.17 in 2.5 mi East 8.1 mph - N/A Rain Rain
9:51 PM 64.4 °F 62.6 °F 94% 30.17 in 3.0 mi East 5.8 mph - N/A Rain Light Rain
10:51 PM 62.1 °F 60.1 °F 93% 30.17 in 10.0 mi ENE 6.9 mph - 0.00 in Rain Light Rain
11:51 PM 62.1 °F 59.0 °F 90% 30.17 in 10.0 mi NE 4.6 mph - 0.00 in   Light Drizzle